Thomson, IL (61285)

12:06 AM CDT on August 30, 2015 (GMT -0500)
Tri-Township | | Change Station
CLOSE
Current Station
Airport
Location: Savanna,
Elevation: 617 ft
Nearby Weather Stations

Elev 617 ft 42.05 °N, 90.11 °W | Updated 11 minutes ago

Overcast
Overcast
67 °F
Feels Like 67 °F
N
0
Wind Variable Wind from North

Today
High -- | Low -- °F
--% Chance of Precip.
Yesterday
High -- | Low -- °F
Precip. -- in
6:23 AM 7:37 PM
Full, 100% visible
Pressure 30.04 in
Visibility 10.0 miles
Clouds Overcast 2600 ft
Dew Point 64 °F
Humidity 88%
Rainfall 1.72 in
Snow Depth Not available.
UV 0 out of 12
Pollen 1.20 out of 12
Air Quality Not available.
Flu Activity Not available.
METAR KSFY 300455Z AUTO 00000KT 10SM OVC026 20/18 A3004 RMK AO2 P0001 T01960175
Pressure 30.04 in
Visibility 10.0 miles
Clouds Overcast 2600 ft
Dew Point 64 °F
Humidity 88%
Rainfall 1.72 in
Snow Depth Not available.
UV 0 out of 12
Pollen 1.20 out of 12
Air Quality Not available.
Flu Activity Not available.
METAR KSFY 300455Z AUTO 00000KT 10SM OVC026 20/18 A3004 RMK AO2 P0001 T01960175

10-Day Weather Forecast

×

Almanac

Astronomy

Aug. 30, 2015 Rise Set
Actual Time
Civil Twilight
Nautical Twilight
Astronomical Twilight
Moon
Length of Visible Light
Length of Day
Tomorrow will be .
, % of the Moon is Illuminated

Today's Extremes

State Highs State Lows

Community

WunderPhotos

Upload Photos

1,850,888 photos uploaded!

WunderBlogs® & News

Nearby

Air Quality

  Air Quality AQ Index Pollutant
Not available.

Snow Depth

Station Depth Elevation

Earthquake Activity

City Distance Mag. Time & Date
Minimum magnitude displayed is 2.5.

Coastal Water Temperatures

Place Temperature

Stations

Nearby Weather Stations

Station Location Temp. Windchill Dew Point Humidity Wind Precip. Elev Updated Type